Regional Weather Roundup
Issued by NWS

Home | Current Version | Previous Version | Graphics & Text | Print | Product List | Glossary On
Versions: 1 2 3 4 5 6 7 8 9 10 11 12 13 14 15 16 17 18 19 20 21 22 23 24 25 26 27 28 29 30 31 32 33 34 35 36 37 38 39 40 41 42 43 44 45 46 47 48 49 50
000
ASUS43 KMPX 270401
RWRMN
WEATHER ROUNDUP FOR MINNESOTA
NATIONAL WEATHER SERVICE TWIN CITIES/CHANHASSEN MN
1100 PM CDT SAT MAY 26 2018


NOTE: "FAIR" INDICATES FEW OR NO CLOUDS BELOW 12,000 FEET WITH NO
SIGNIFICANT WEATHER AND/OR OBSTRUCTIONS TO VISIBILITY. N/A MEANS
CURRENT SKY AND/OR WEATHER CONDITIONS ARE NOT AVAILABLE.

MNZ060>063-068>070-270500-
   Twin Cities Metro

CITY           SKY/WX    TMP DP  RH WIND       PRES   REMARKS
TWIN CITIES    FAIR      78  58  49 NE3       29.74R
ST PAUL        FAIR      74  61  63 CALM      29.74R
CRYSTAL        FAIR      72  57  59 CALM      29.73R
BLAINE         FAIR      72  61  68 CALM      29.74R
LAKEVILLE      FAIR      70  63  78 CALM      29.75R
EDEN PRAIRIE   FAIR      77  56  48 CALM      29.73R
SOUTH ST PAUL  FAIR      74  61  62 CALM      29.74R
LAKE ELMO      FAIR      70  61  73 CALM      29.75R
$$
MNZ001>005-007-008-013>017-022>024-027-028-270500-
   Northwest Minnesota

CITY           SKY/WX    TMP DP  RH WIND       PRES   REMARKS
BEMIDJI        FAIR      64  58  82 CALM      29.76R
HALLOCK        FAIR      68  57  68 NE6       29.73R
ROSEAU         FAIR      66  61  82 CALM      29.75R
WARROAD        FAIR      64  61  88 CALM      29.75R
THIEF RVR FALL FAIR      70  59  68 E3        29.75R
CROOKSTON      FAIR      73  55  53 E5        29.73R
FOSSTON        FAIR      66  45  45 CALM      29.76R
DETROIT LAKES  FAIR      70  54  56 CALM      29.77R
MOORHEAD       FAIR      73  46  38 CALM      29.73R
PARK RAPIDS    FAIR      67  54  63 CALM      29.76R
MAHNOMEN       FAIR      71  54  54 E6        29.74R
$$
MNZ006-009>011-018-025>026-270500-
   North Central Minnesota

CITY           SKY/WX    TMP DP  RH WIND       PRES   REMARKS
BAUDETTE         N/A    N/A N/A N/A MISG      29.73R
FLAG ISLAND    FAIR      66  63  88 CALM      29.73R
INTL FALLS     FAIR      58  57  97 CALM      29.74R
WASKISH        FAIR      63  61  94 CALM      29.75R
BIG FORK       FAIR      61  57  88 CALM      29.75S
LONGVILLE      FAIR      61  59  94 CALM      29.76S
GRAND RAPIDS   FAIR      64  59  83 S3        29.78R
CRANE LAKE     FAIR      57  55  94 CALM      29.76R
ORR            FAIR      63  57  82 CALM      29.73R
COOK           FAIR      63  61  94 CALM      29.75S
WALKER         FAIR      64  56  76 CALM      29.76R
$$
MNZ012-019>021-037-270500-
   Northeast Minnesota

CITY           SKY/WX    TMP DP  RH WIND       PRES   REMARKS
DULUTH         FAIR      59  55  87 E6        29.77R
ELY            FAIR      63  57  82 CALM      29.75S
HIBBING        FAIR      59  55  87 CALM      29.75R
EVELETH        FAIR      61  57  88 CALM      29.76S
DULUTH HARBOR  FOG       48  48 100 CALM      29.79S VSB 1/2
TWO HARBORS    FAIR      57  52  82 CALM      29.75S
SILVER BAY     FAIR      55  55 100 CALM      29.75F
GRAND MARAIS     N/A     44  41  89 CALM      29.75R
G MARAIS ARPRT FAIR      55  52  88 CALM      29.78F FOG
$$
MNZ029>031-032-039>041-046>048-054>057-064-270500-
   West Central Minnesota

CITY           SKY/WX    TMP DP  RH WIND       PRES   REMARKS
FERGUS FALLS   FAIR      75  52  43 E3        29.70R
MORRIS         CLEAR     77  46  33 CALM      29.75R
ALEXANDRIA     FAIR      74  53  48 CALM      29.78R
ELBOW LAKE     FAIR      74  53  48 SE3       29.75R
WADENA         FAIR      66  57  72 CALM      29.76R
GLENWOOD       FAIR      73  55  53 CALM      29.78R
APPLETON       CLEAR     73  55  53 CALM      29.74S
BENSON         CLEAR     72  54  53 CALM      29.76S
ORTONVILLE     CLEAR     79  52  38 S3        29.75S
MADISON        CLEAR     79  54  41 CALM      29.75S
WILLMAR        FAIR      73  52  46 CALM      29.78S
$$
MNZ033>034-036-042>043-049>051-058-059-270500-
   Central Minnesota

CITY           SKY/WX    TMP DP  RH WIND       PRES   REMARKS
ST CLOUD       FAIR      68  54  60 CALM      29.74R
SAUK CENTRE    FAIR      69  55  59 CALM      29.77R
PAYNESVILLE    FAIR      66  59  77 CALM      29.77R
AITKIN         FAIR      57  55  94 CALM      29.74S
PINE RIVER     FAIR      61  54  77 CALM      29.80R
BRAINERD       FAIR      67  57  70 CALM      29.75R
STAPLES        FAIR      66  55  68 CALM      29.76R
LONG PRAIRIE   FAIR      66  55  68 CALM      29.77S
LITTLE FALLS   FAIR      66  57  72 CALM      29.76R
LITCHFIELD     FAIR      73  55  53 CALM      29.77R
BUFFALO        FAIR      70  53  56 CALM      29.76R
MAPLE LAKE     FAIR      68  60  74 CALM      29.76R
HUTCHINSON     FAIR      72  64  76 CALM      29.77R
$$
MNZ037-044-045-052-053-270500-
   East Central Minnesota

CITY           SKY/WX    TMP DP  RH WIND       PRES   REMARKS
PRINCETON      FAIR      66  55  68 CALM      29.75R
MORA           FAIR      64  59  82 CALM      29.76S
CAMBRIDGE      FAIR      72  54  53 CALM      29.75R
RUSH CITY      FAIR      64  55  73 CALM      29.74R
MOOSE LAKE     FAIR      57  52  82 NE3       29.75S
HINCKLEY       FAIR      61  61 100 CALM      29.75R
CLOQUET        FAIR      55  52  88 CALM      29.78R
MCGREGOR       FAIR      63  55  77 CALM      29.76R
$$
MNZ071>073-080-081-089-090-097-098-270500-
   Southwest Minnesota

CITY           SKY/WX    TMP DP  RH WIND       PRES   REMARKS
MONTEVIDEO     CLEAR     75  46  35 W3        29.76R
CANBY          CLEAR     73  58  60 CALM      29.77S
MARSHALL       CLEAR     74  59  59 SW5       29.77S
REDWOOD FALLS  CLEAR     78  55  44 W3        29.75S
OLIVIA         CLEAR     73  55  53 CALM      29.76R
PIPESTONE      CLEAR     77  54  44 CALM      29.81S
WINDOM         CLEAR     75  50  41 CALM      29.79S
WORTHINGTON    CLEAR     74  54  49 CALM      29.81R
JACKSON        CLEAR     72  57  60 CALM      29.80S
TRACY          CLEAR     77  53  43 SW5       29.78S
$$
MNZ065>067-074>077-082>085-091>093-270500-
   South Central Minnesota

CITY           SKY/WX    TMP DP  RH WIND       PRES   REMARKS
MANKATO        FAIR      81  55  40 CALM      29.77R
NEW ULM        CLEAR     77  50  38 CALM      29.76R
ST JAMES       CLEAR     75  54  46 CALM      29.78S
FAIRMONT       CLEAR     74  55  51 CALM      29.78R
GLENCOE        FAIR      75  61  60 CALM      29.75S
FARIBAULT      FAIR      70  64  83 CALM      29.76S
OWATONNA       FAIR      70  61  73 SE3       29.77R
WASECA         FAIR      72  55  56 CALM      29.78R
ALBERT LEA     FAIR      72  57  60 CALM      29.78R
$$
MNZ078>079-086>088-094>096-270500-
   Southeast Minnesota

CITY           SKY/WX    TMP DP  RH WIND       PRES   REMARKS
ROCHESTER      FAIR      78  61  55 E3        29.78R
RED WING       FAIR      68  59  73 CALM      29.74R
STANTON        FAIR      70  63  79 CALM      29.74S
DODGE CENTER   FAIR      75  61  60 CALM      29.78S
WINONA         FAIR      73  68  83 CALM      29.75S
AUSTIN         FAIR      72  61  68 CALM      29.78R
PRESTON        FAIR      79  61  54 S3        29.79S
$$
ABBREVIATIONS USED IN REMARKS
   TC - TEMPERATURES IN CELSIUS
  WCI - WIND CHILL INDEX
   HX - HEAT INDEX
  VSB - VISIBILITY
$$



USA.gov is the U.S. government's official web portal to all federal, state and local government web resources and services.